This demonstration page uses our WeatherBlox Daily Observations layout. Learn more.

Left ArrowRight Arrow

Hourly Observations for April 15, 2018

Temp ( °F °C ) Dew Point ( °F °C ) Humidity (%) Winds ( mph kmh ) Pressure ( in mb ) Visibility ( mi km ) Precip ( " mm )
12:51 am 00:51 Clear 56 13.3 1 -17.2 10 10 NNW 8 13 30.02 1017 10 16 0.00 0.00
1:51 am 01:51 Clear 51 10.6 4 -15.6 14 14 S 6 9 30.01 1016 10 16 0.00 0.00
2:51 am 02:51 Clear 47 8.3 5 -15 18 18 SSE 6 9 30.01 1016 10 16 0.00 0.00
3:51 am 03:51 Clear 44 6.7 4 -15.6 19 19 Calm 30.01 1016 10 16 0.00 0.00
4:51 am 04:51 Clear 41 5 4 -15.6 21 21 S 6 9 30.03 1017 10 16 0.00 0.00
5:51 am 05:51 Sunny 38 3.3 2 -16.7 22 22 E 3 6 30.04 1017 10 16 0.00 0.00
6:51 am 06:51 Sunny 47 8.3 4 -15.6 17 17 SSW 3 6 30.04 1017 10 16 0.00 0.00
7:51 am 07:51 Sunny 59 15 2 -16.7 10 10 ESE 16 26 30.04 1017 8 13 0.00 0.00
8:51 am 08:51 Sunny 65 18.3 3 -16.1 8 8 SE 13 20 30.03 1017 10 16 0.00 0.00
9:51 am 09:51 Sunny 68 20 4 -15.6 8 8 S 8 13 30.02 1017 10 16 0.00 0.00
10:51 am 10:51 Sunny 73 22.8 3 -16.1 6 6 SSE 12 19 29.99 1016 10 16 0.00 0.00
11:51 am 11:51 Sunny 76 24.4 1 -17.2 5 5 Calm 29.96 1015 10 16 0.00 0.00
12:51 pm 12:51 Sunny 80 26.7 1 -17.2 4 4 VRB 7 11 29.93 1013 10 16 0.00 0.00
1:51 pm 13:51 Sunny 83 28.3 -4 -20 3 3 SE 10 17 29.89 1012 10 16 0.00 0.00
2:51 pm 14:51 Sunny 84 28.9 -11 -23.9 2 2 S 8 13 29.86 1011 10 16 0.00 0.00
3:51 pm 15:51 Sunny 85 29.4 -12 -24.4 2 2 undefined N/A 29.83 1010 10 16 0.00 0.00
4:51 pm 16:51 Sunny 85 29.4 -9 -22.8 2 2 VRB 5 7 29.81 1010 10 16 0.00 0.00
5:51 pm 17:51 Sunny 85 29.4 -6 -21.1 3 3 N 6 9 29.81 1010 10 16 0.00 0.00
6:51 pm 18:51 Clear 75 23.9 -4 -20 4 4 NE 7 11 29.82 1010 10 16 0.00 0.00
7:51 pm 19:51 Clear 68 20 -3 -19.4 6 6 ENE 7 11 29.82 1010 10 16 0.00 0.00
8:51 pm 20:51 Clear 67 19.4 -3 -19.4 6 6 S 5 7 29.85 1011 10 16 0.00 0.00
9:51 pm 21:51 Clear 64 17.8 -1 -18.3 7 7 N 7 11 29.86 1011 10 16 0.00 0.00
10:51 pm 22:51 Clear 64 17.8 0 -17.8 7 7 NW 10 17 29.85 1011 10 16 0.00 0.00
11:51 pm 23:51 Clear 59 15 1 -17.2 9 9 S 5 7 29.87 1012 10 16 0.00 0.00

Powered by AerisWeather